Location: Newark
(43.0000°N, 1.6781°W)
Time: 04:12:05
(UTC+00:00)

Explorer 7 - Pass Details

Date: 28 April 2021
Orbit: 484 x 677 km, 50.3° (Epoch: 07 May)

Event Time Altitude Azimuth Distance (km) Brightness Sun altitude
Rises 16:06:35 0° 213° (SSW) 2,534 10.8 31.1°
Reaches altitude 10° 16:08:52 10° 203° (SSW) 1,665 9.8 30.7°
Maximum altitude 16:12:14 32° 139° (SE) 865 7.8 30.1°
Drops below altitude 10° 16:15:44 10° 75° (ENE) 1,728 8.9 29.5°
Sets 16:18:08 0° 65° (ENE) 2,646 9.8 29.0°
